Change the Weather History Date:

Monday, May 13, 2013

  Actual Average Record
Temperature  
Mean Temperature 38 °F -  
Max Temperature 54 °F 64 °F 59 °F (2014)
Min Temperature 24 °F 40 °F 24 °F (2013)
Degree Days  
Heating Degree Days 26    
Moisture  
Dew Point 26 °F    
Average Humidity 60    
Maximum Humidity 95    
Minimum Humidity 31    
Precipitation  
Precipitation 0.00 in - - ()
Sea Level Pressure  
Sea Level Pressure 30.09 in    
Wind  
Wind Speed 4 mph (South)    
Max Wind Speed 16 mph    
Max Gust Speed 24 mph    
Visibility 10 miles    
Events      
Averages and records for this station are not official NWS values.
T = Trace of Precipitation, MM = Missing Value Source: NWS Daily Summary

Daily Weather History Graph

Daily Weather History Graph

Search for Another Location

Airport or City:

Trip Planner

Search our weather history database for the weather conditions in past years. The results will help you decide how hot, cold, wet, or windy it might be!

Date:

Astronomy

May. 13, 2013 Rise Set
Actual Time 5:24 AM CDT 8:11 PM CDT
Civil Twilight 4:51 AM CDT 8:45 PM CDT
Nautical Twilight 4:08 AM CDT 9:28 PM CDT
Astronomical Twilight 3:18 AM CDT 10:19 PM CDT
Moon 8:09 AM CDT (5/13) 11:20 PM CDT (5/13)
Length of Visible Light 15h 54m
Length of Day
14h 46m
Waxing Crescent, 12% of the Moon is Illuminated
May 13
Waxing Crescent
May 17
First Quarter
May 24
Full
May 31
Last Quarter
Jun 8
New

Hourly Weather History & Observations

Time (CDT) Temp. Windchill Dew Point Humidity Pressure Visibility Wind Dir Wind Speed Gust Speed Precip Events Conditions
12:15 AM 28.4 °F - 22.6 °F 79% 30.12 in 10.0 mi Calm Calm - N/A   Clear
12:35 AM 28.0 °F - 22.8 °F 81% 30.12 in 10.0 mi Calm Calm - N/A   Clear
12:55 AM 27.7 °F - 22.8 °F 82% 30.12 in 10.0 mi Calm Calm - N/A   Clear
1:15 AM 27.7 °F - 23.9 °F 86% 30.13 in 10.0 mi Calm Calm - N/A   Clear
1:35 AM 27.3 °F - 24.3 °F 88% 30.12 in 10.0 mi Calm Calm - N/A   Clear
1:55 AM 27.0 °F - 24.6 °F 91% 30.12 in 10.0 mi Calm Calm - N/A   Clear
2:15 AM 27.1 °F - 25.3 °F 93% 30.12 in 10.0 mi Calm Calm - N/A   Clear
2:35 AM 26.2 °F - 23.9 °F 91% 30.12 in 10.0 mi Calm Calm - N/A   Clear
2:55 AM 27.0 °F - 24.3 °F 90% 30.12 in 10.0 mi Calm Calm - N/A   Clear
3:15 AM 26.4 °F - 23.5 °F 89% 30.12 in 10.0 mi Calm Calm - N/A   Clear
3:35 AM 24.8 °F - 22.1 °F 89% 30.12 in 10.0 mi Calm Calm - N/A   Clear
4:15 AM 24.3 °F - 22.5 °F 93% 30.11 in 10.0 mi Calm Calm - N/A   Clear
4:35 AM 24.8 °F - 23.0 °F 93% 30.12 in 10.0 mi Calm Calm - N/A   Clear
4:55 AM 25.3 °F - 23.5 °F 93% 30.12 in 10.0 mi Calm Calm - N/A   Clear
5:15 AM 24.6 °F - 23.0 °F 94% 30.12 in 10.0 mi Calm Calm - N/A   Clear
5:35 AM 25.0 °F 20.7 °F 23.7 °F 95% 30.13 in 10.0 mi West 3.5 mph - N/A   Clear
5:55 AM 25.2 °F - 23.0 °F 91% 30.14 in 10.0 mi Calm Calm - N/A   Clear
6:15 AM 25.9 °F - 23.9 °F 92% 30.14 in 10.0 mi Calm Calm - N/A   Clear
6:35 AM 29.7 °F - 26.4 °F 88% 30.14 in 10.0 mi Calm Calm - N/A   Clear
6:55 AM 32.0 °F 28.7 °F 26.4 °F 80% 30.15 in 10.0 mi West 3.5 mph - N/A   Clear
7:15 AM 33.8 °F 29.6 °F 26.1 °F 73% 30.16 in 10.0 mi West 4.6 mph - N/A   Clear
7:35 AM 36.3 °F 32.5 °F 26.2 °F 67% 30.16 in 10.0 mi West 4.6 mph - N/A   Clear
7:55 AM 37.9 °F 34.4 °F 26.1 °F 62% 30.16 in 10.0 mi West 4.6 mph - N/A   Clear
8:15 AM 40.1 °F 38.0 °F 25.7 °F 56% 30.17 in 10.0 mi West 3.5 mph - N/A   Clear
8:35 AM 42.4 °F 39.6 °F 23.7 °F 48% 30.17 in 10.0 mi WNW 4.6 mph - N/A   Clear
8:55 AM 43.7 °F 39.7 °F 20.7 °F 40% 30.17 in 10.0 mi West 6.9 mph - N/A   Clear
9:15 AM 44.8 °F 41.6 °F 17.6 °F 34% 30.16 in 10.0 mi West 5.8 mph - N/A   Clear
9:35 AM 45.5 °F 39.9 °F 17.8 °F 33% 30.16 in 10.0 mi West 11.5 mph - N/A   Clear
9:55 AM 46.4 °F 44.3 °F 17.6 °F 32% 30.16 in 10.0 mi WSW 4.6 mph - N/A   Clear
10:15 AM 45.5 °F - 17.1 °F 32% 30.16 in 10.0 mi Calm Calm - N/A   Clear
10:35 AM 46.8 °F - 18.1 °F 32% 30.16 in 10.0 mi WNW 4.6 mph - N/A   Clear
10:55 AM 47.5 °F - 19.0 °F 32% 30.16 in 10.0 mi Calm Calm - N/A   Clear
11:15 AM 48.9 °F - 19.0 °F 31% 30.15 in 10.0 mi West 10.4 mph - N/A   Clear
11:35 AM 48.0 °F - 18.1 °F 31% 30.14 in 10.0 mi Calm Calm - N/A   Clear
11:55 AM 49.8 °F - 19.9 °F 31% 30.14 in 10.0 mi SSW 6.9 mph - N/A   Clear
12:15 PM 49.8 °F - 21.9 °F 33% 30.14 in 10.0 mi South 9.2 mph - N/A   Clear
12:35 PM 50.2 °F - 23.0 °F 35% 30.13 in 10.0 mi South 11.5 mph - N/A   Clear
12:55 PM 50.4 °F - 22.8 °F 34% 30.13 in 10.0 mi South 16.1 mph 20.7 mph N/A   Clear
1:15 PM 50.5 °F - 23.5 °F 35% 30.12 in 10.0 mi South 10.4 mph - N/A   Clear
1:35 PM 51.8 °F - 23.9 °F 34% 30.11 in 10.0 mi SSE 9.2 mph 17.3 mph N/A   Clear
1:55 PM 51.6 °F - 23.9 °F 34% 30.10 in 10.0 mi South 10.4 mph 18.4 mph N/A   Clear
2:15 PM 52.7 °F - 24.3 °F 33% 30.09 in 10.0 mi SE 11.5 mph - N/A   Clear
2:35 PM 52.7 °F - 23.7 °F 32% 30.08 in 10.0 mi SSE 13.8 mph 17.3 mph N/A   Clear
3:35 PM 52.7 °F - 24.8 °F 34% 30.06 in 10.0 mi South 11.5 mph 18.4 mph N/A   Clear
3:55 PM 53.1 °F - 25.5 °F 34% 30.05 in 10.0 mi SSE 12.7 mph 19.6 mph N/A   Clear
4:15 PM 53.8 °F - 26.1 °F 34% 30.04 in 10.0 mi South 11.5 mph 20.7 mph N/A   Clear
4:35 PM 51.3 °F - 32.0 °F 48% 30.04 in 10.0 mi SSE 12.7 mph 23.0 mph N/A   Clear
4:55 PM 49.8 °F - 32.2 °F 51% 30.04 in 10.0 mi SE 13.8 mph 20.7 mph N/A   Clear
5:15 PM 48.6 °F - 32.0 °F 53% 30.04 in 10.0 mi SSE 13.8 mph 18.4 mph N/A   Clear
5:35 PM 47.5 °F - 32.5 °F 56% 30.03 in 10.0 mi SSE 15.0 mph 24.2 mph N/A   Clear
5:55 PM 46.9 °F - 32.2 °F 57% 30.03 in 10.0 mi SSE 16.1 mph 21.9 mph N/A   Clear
6:35 PM 45.7 °F 39.1 °F 30.2 °F 55% 30.01 in 10.0 mi SSE 15.0 mph 20.7 mph N/A   Scattered Clouds
7:15 PM 44.8 °F 38.7 °F 29.8 °F 56% 30.01 in 10.0 mi SSE 12.7 mph 23.0 mph N/A   Overcast
7:35 PM 44.6 °F 38.8 °F 29.8 °F 56% 30.00 in 10.0 mi SSE 11.5 mph 20.7 mph N/A   Overcast
7:55 PM 44.1 °F 39.5 °F 29.3 °F 56% 30.00 in 10.0 mi SSE 8.1 mph 19.6 mph N/A   Overcast
8:15 PM 44.1 °F 40.1 °F 29.3 °F 56% 30.02 in 10.0 mi South 6.9 mph - N/A   Overcast
8:35 PM 44.1 °F 38.1 °F 28.2 °F 54% 30.02 in 10.0 mi South 11.5 mph 16.1 mph N/A   Overcast
8:55 PM 44.1 °F 38.6 °F 28.6 °F 55% 30.01 in 10.0 mi South 10.4 mph 17.3 mph N/A   Overcast
9:15 PM 43.7 °F 38.1 °F 29.5 °F 57% 30.00 in 10.0 mi South 10.4 mph 17.3 mph N/A   Overcast
9:35 PM 43.7 °F 39.1 °F 30.0 °F 59% 29.99 in 10.0 mi South 8.1 mph 18.4 mph N/A   Overcast
9:55 PM 43.9 °F 39.3 °F 30.9 °F 60% 29.97 in 10.0 mi South 8.1 mph 16.1 mph N/A   Overcast
10:15 PM 44.1 °F 39.0 °F 31.8 °F 62% 29.97 in 10.0 mi South 9.2 mph 17.3 mph N/A   Overcast
10:35 PM 44.1 °F 38.1 °F 32.5 °F 64% 29.95 in 10.0 mi SSE 11.5 mph 16.1 mph N/A   Overcast
10:55 PM 43.7 °F 37.7 °F 33.3 °F 67% 29.94 in 10.0 mi SSE 11.5 mph 18.4 mph N/A   Overcast
11:15 PM 43.0 °F 37.7 °F 34.3 °F 72% 29.93 in 10.0 mi SSE 9.2 mph - N/A   Overcast
11:35 PM 43.0 °F 38.8 °F 35.6 °F 75% 29.93 in 10.0 mi SSE 6.9 mph 16.1 mph N/A   Overcast
11:55 PM 43.7 °F 38.6 °F 34.3 °F 70% 29.92 in 10.0 mi SSE 9.2 mph - N/A   Overcast